GFSSW_prec_cthk_021.txt.gz
RH
15 14 12 9 8 8 7 7 7 8 10 9 8 7 8 8 7 6 6 16 20 20 26 30 32 42 49 53 52 49 46 46 47 48 45 43 36 37 37 37 39 41 42 42 43
12 13 14 13 10 8 8 7 7 6 8 10 8 8 7 8 7 6 5 7 17 18 22 28 30 35 48 49 51 51 44 42 42 44 43 51 37 34 34 36 38 39 39 39 39
12 11 12 12 12 11 8 8 7 6 6 8 9 8 7 7 7 6 6 5 10 17 21 26 26 32 41 49 52 50 45 42 41 41 42 45 41 33 32 33 34 34 34 36 37
12 12 11 11 11 11 11 10 8 7 6 6 8 8 7 7 8 6 6 6 6 14 20 25 26 33 38 46 47 47 43 39 38 39 40 41 43 32 32 31 31 33 34 36 37
11 12 12 12 12 11 11 10 10 8 7 6 6 8 7 7 6 6 5 5 5 11 18 24 26 33 39 41 43 43 41 37 36 35 36 38 41 35 37 32 30 31 32 34 35
12 11 11 11 11 11 11 10 10 10 9 7 6 6 8 7 6 7 6 5 5 8 16 23 26 35 36 37 40 42 38 36 34 37 37 40 41 40 38 36 29 29 30 32 36
11 11 12 11 11 10 10 10 10 10 10 9 7 6 6 5 6 6 6 6 6 7 15 22 28 31 34 34 37 40 38 37 37 39 40 43 47 46 38 38 31 28 29 32 34
9 9 10 11 11 11 11 10 9 8 10 11 9 8 6 5 6 8 7 5 6 7 14 21 28 29 33 33 39 39 35 34 38 39 40 41 43 45 44 34 31 28 28 31 32
8 8 8 9 10 10 11 10 9 8 8 11 12 10 8 7 9 8 6 7 7 7 13 20 25 27 30 35 39 37 33 34 42 42 41 45 46 46 47 41 34 29 27 29 32
9 8 8 8 8 9 10 10 10 9 11 13 14 14 9 8 10 9 7 8 7 6 13 18 22 22 25 28 31 34 32 35 41 45 48 51 49 49 48 38 31 32 30 30 29
9 9 8 8 8 8 9 10 11 11 11 11 12 11 11 10 10 10 10 9 9 9 11 16 20 20 22 25 28 33 34 37 46 45 49 51 50 49 51 46 34 31 32 30 29
10 10 9 8 8 8 8 9 11 11 10 9 9 8 10 10 10 11 11 11 10 9 10 13 18 21 25 27 30 32 39 40 45 48 48 50 48 48 51 46 36 33 36 34 33
12 11 10 10 9 9 9 10 10 10 11 9 9 9 9 10 9 8 11 11 11 10 9 12 15 21 22 24 26 30 33 41 40 48 51 50 49 49 50 51 47 44 40 42 36
15 13 11 10 10 9 10 10 10 11 14 11 11 11 13 12 10 8 11 12 12 12 11 11 13 18 21 23 25 23 26 35 42 45 45 48 46 47 48 47 45 44 42 40 38
18 16 14 12 12 11 11 10 10 15 18 12 12 14 14 14 12 10 9 12 14 12 12 12 11 17 20 21 25 23 27 29 38 45 46 49 53 41 46 47 42 40 39 41 43
22 19 17 15 14 13 12 12 14 19 21 14 15 14 14 15 14 13 11 13 14 14 12 13 11 15 19 24 27 30 30 35 42 45 51 40 45 35 38 37 37 38 39 43 43
25 22 20 19 17 16 14 13 18 21 16 15 15 15 14 14 16 14 12 14 16 19 17 14 14 14 17 27 29 30 34 39 41 50 39 35 44 30 29 28 28 30 34 37 41
27 25 23 21 19 18 16 16 22 17 16 16 17 17 16 15 16 15 15 14 17 17 16 16 16 14 19 22 27 27 29 34 41 39 32 34 36 28 29 26 27 30 31 35 37
31 29 26 24 24 22 19 16 16 18 18 16 16 17 18 17 16 18 15 13 15 17 18 18 15 16 20 23 25 31 31 31 35 36 33 32 30 26 27 25 25 25 29 30 31
34 31 29 30 30 28 20 17 16 17 18 19 19 18 18 18 17 19 19 16 16 16 20 18 15 13 19 23 27 27 29 32 32 38 38 32 29 21 24 23 22 23 25 27 29
37 35 33 32 32 31 23 19 17 16 16 18 18 18 18 19 20 19 18 17 17 21 24 22 14 11 17 20 24 28 28 32 32 31 32 35 27 24 22 21 19 18 21 24 26
42 40 39 37 38 32 28 25 21 18 16 17 17 17 18 19 20 22 22 21 21 22 25 25 24 20 12 15 17 22 26 27 29 32 27 28 27 22 22 21 20 18 18 23 26
47 45 41 44 43 41 36 34 30 23 20 17 16 17 16 16 21 20 21 24 24 23 25 27 28 27 22 18 15 17 20 24 28 28 31 26 23 23 24 23 20 20 22 22 27
48 47 49 53 51 50 48 40 36 32 29 20 20 18 17 16 18 20 20 26 27 25 28 29 32 29 23 18 15 15 15 18 23 27 26 24 21 20 23 23 20 20 24 26 27
58 57 61 60 62 63 58 50 42 38 36 32 27 20 19 19 18 21 22 26 31 32 34 37 36 35 28 22 20 17 12 13 16 17 21 20 20 16 20 22 22 20 24 27 27
80 75 60 55 53 54 56 55 47 48 43 39 40 36 32 30 27 27 26 26 32 36 36 38 36 35 32 27 24 21 15 13 12 12 14 13 17 16 16 20 21 19 22 26 26
84 75 77 61 54 53 48 45 48 52 45 45 44 41 37 37 36 35 33 30 32 41 43 49 41 42 36 34 28 27 21 16 14 13 14 15 13 15 15 17 19 18 20 22 25

GFSSW_prec_cthk_024.txt.gz
RH
11 11 12 12 11 9 7 7 6 6 6 6 8 7 7 7 7 7 8 13 19 21 26 32 37 40 52 54 51 47 48 47 43 39 42 33 31 35 37 37 41 44 44 47 46
11 11 11 11 11 11 10 8 7 6 6 6 6 8 6 7 6 6 7 7 13 17 24 32 35 41 48 53 52 47 50 46 44 42 43 40 30 33 36 35 37 42 43 44 45
11 11 11 11 10 10 10 10 9 7 6 6 5 6 7 6 6 7 6 6 8 15 24 28 31 35 43 45 52 51 52 40 41 43 42 44 35 28 32 34 35 37 38 41 43
11 10 11 11 11 11 10 10 9 10 8 6 6 5 7 7 8 7 7 7 7 11 19 24 27 31 34 40 48 48 42 37 40 38 38 39 38 30 29 31 32 34 35 38 40
11 11 10 10 10 10 11 10 10 9 9 9 7 6 6 8 6 7 6 6 6 8 15 21 25 27 33 40 43 45 37 37 35 34 37 38 39 33 30 31 30 33 33 37 37
9 10 11 11 10 10 10 10 10 9 9 9 9 7 6 7 6 6 6 6 7 7 13 20 24 27 33 38 40 42 38 38 34 31 35 37 38 33 33 30 31 32 32 34 36
8 8 8 9 10 10 10 10 9 9 9 8 10 9 8 5 6 6 6 7 7 7 10 17 25 25 34 36 38 39 39 36 32 31 39 41 43 41 34 32 31 31 33 35 35
8 7 7 7 8 9 10 10 9 9 9 8 8 11 10 6 5 5 7 7 6 7 8 15 23 26 33 34 37 40 38 38 33 32 37 41 44 38 38 31 33 31 32 32 34
9 8 8 8 7 7 8 9 9 9 9 8 10 12 12 8 7 8 8 7 6 7 7 13 20 24 30 35 37 38 40 39 32 34 39 42 48 46 40 36 32 32 29 30 33
10 9 9 8 8 7 7 8 8 9 10 11 12 14 10 11 10 9 8 7 8 7 8 12 19 23 27 30 34 38 36 36 33 33 38 42 48 44 42 38 32 31 29 28 30
13 11 10 9 9 8 8 8 11 14 13 11 13 11 11 11 11 10 8 8 8 8 7 10 15 20 23 26 32 37 34 35 39 43 43 42 43 44 42 41 35 32 29 26 27
16 14 12 10 10 9 8 10 10 10 9 8 8 8 9 11 12 12 10 8 9 7 7 10 12 19 24 27 30 32 34 34 41 44 44 45 42 42 42 41 36 32 31 31 30
20 18 15 12 11 11 10 13 10 10 11 8 8 7 8 9 9 11 11 10 9 9 8 9 11 17 22 25 30 32 33 35 41 43 42 44 42 40 39 39 40 38 34 38 38
23 21 19 15 13 12 13 12 11 11 13 11 10 10 10 9 10 10 12 11 11 10 9 8 10 15 20 23 26 30 29 35 43 48 46 42 41 40 41 39 41 42 43 46 42
27 24 22 19 16 14 15 13 12 17 17 14 13 13 15 13 11 10 10 13 12 11 10 8 8 11 16 20 23 24 30 35 41 45 46 51 48 42 40 38 37 40 41 40 44
30 27 25 23 20 16 15 15 18 21 20 15 15 15 14 14 14 14 11 13 13 13 12 10 9 8 12 19 21 24 31 32 38 41 44 41 47 41 41 34 34 38 42 41 42
32 30 27 26 25 19 18 18 21 20 18 16 16 15 14 14 14 15 13 13 14 17 16 11 11 8 9 15 23 25 29 38 41 42 41 40 42 34 38 35 34 35 37 41 43
36 32 30 27 26 23 20 20 22 19 18 18 17 17 15 14 14 14 14 14 14 16 17 16 13 10 7 11 17 22 25 33 38 36 38 40 37 29 31 33 33 31 30 36 37
38 37 34 31 29 28 26 20 19 20 20 19 19 20 18 17 16 16 15 14 14 15 16 18 15 12 10 10 16 20 27 27 30 31 32 31 33 28 28 32 27 25 27 28 30
41 42 39 37 35 38 29 22 20 20 20 22 19 19 20 20 19 18 17 15 15 15 18 20 21 16 14 11 13 19 22 31 30 34 34 30 31 28 28 27 25 26 23 25 27
44 44 44 39 42 43 34 25 23 21 22 22 22 21 20 19 22 19 18 19 17 17 19 22 23 19 18 13 10 16 25 28 31 30 31 32 27 25 24 26 25 24 24 23 25
42 41 46 45 47 41 36 34 30 24 22 22 22 22 20 20 21 21 20 18 19 21 20 24 31 24 18 12 11 14 20 27 31 34 32 30 27 27 26 23 23 23 25 23 22
44 37 40 45 45 43 43 40 38 33 26 23 21 21 19 21 23 21 23 20 19 22 25 27 30 36 23 17 14 13 17 22 31 29 32 33 30 28 26 21 20 21 21 19 21
59 50 50 58 53 58 58 58 51 40 37 28 25 22 20 21 22 23 20 21 21 22 26 27 32 31 28 18 15 15 14 19 24 29 29 30 32 29 27 22 19 20 19 20 23
84 74 76 57 71 78 74 71 63 55 48 40 35 27 23 22 22 21 20 21 27 27 27 25 28 33 28 29 28 26 19 15 18 20 24 24 28 31 29 23 19 20 21 21 23
85 84 88 81 73 53 52 54 63 59 58 55 47 39 27 26 25 23 21 20 24 28 32 34 37 36 34 27 30 30 28 25 18 16 18 21 21 25 28 23 21 17 18 22 22
81 84 85 74 70 71 57 56 60 71 64 56 66 62 53 42 37 35 35 33 27 33 36 37 36 42 38 39 36 37 31 28 26 19 12 14 14 17 18 18 17 16 14 17 20

GFSSW_prec_cthk_030.txt.gz
RH
10 10 10 10 10 10 9 9 8 7 6 6 5 5 5 5 6 6 6 11 18 23 25 28 30 33 35 43 57 71 74 54 48 42 36 33 38 49 65 46 73 57 63 53 51
11 11 10 10 10 10 10 10 9 8 7 6 6 5 5 5 5 5 4 8 14 20 23 29 32 32 33 43 51 74 67 54 58 46 35 36 37 39 38 39 53 53 54 49 53
10 10 10 10 9 10 10 10 10 10 9 8 7 6 5 5 5 8 6 6 10 14 19 26 33 33 34 39 51 69 60 51 49 48 37 34 39 33 40 41 41 50 46 44 49
8 8 8 9 9 9 9 9 9 10 10 9 8 7 6 5 12 14 9 7 7 11 16 24 30 32 34 39 51 66 57 52 47 40 43 39 35 43 38 47 41 42 41 43 44
7 7 7 7 8 8 9 9 9 9 10 9 9 7 7 9 6 9 7 6 5 9 15 23 28 31 34 38 41 52 55 43 40 35 43 45 38 33 43 47 41 38 39 40 41
8 8 7 6 6 7 7 7 8 9 9 9 9 8 7 8 6 8 7 6 6 7 15 22 28 30 33 35 32 36 47 44 39 40 46 49 45 32 36 39 40 35 36 38 39
10 8 8 8 7 6 6 6 6 7 8 9 9 8 9 7 8 8 8 8 6 7 10 17 27 28 30 27 27 33 43 37 37 37 43 43 51 34 37 36 39 33 34 35 36
15 12 10 8 8 7 7 7 6 6 7 8 8 8 8 8 8 6 8 10 11 11 8 12 19 24 24 26 25 27 35 42 39 36 41 33 59 32 38 32 39 32 31 33 33
20 18 16 12 10 8 8 7 6 6 6 7 8 12 10 8 9 8 7 8 8 8 10 9 15 18 22 23 24 26 34 36 41 40 41 36 50 54 44 31 35 32 28 30 32
24 22 20 18 15 12 9 8 8 8 9 9 9 17 10 10 10 8 6 7 7 9 9 9 12 15 18 22 24 25 32 34 37 39 38 44 41 43 39 42 35 34 30 28 29
28 25 23 21 18 15 13 11 15 17 20 15 16 13 12 11 11 11 9 8 9 11 9 10 9 12 15 19 22 27 31 31 41 48 40 46 47 64 45 45 40 34 30 29 28
32 29 27 24 21 18 16 17 16 14 11 10 9 13 13 13 14 11 10 11 11 11 10 11 9 7 13 17 22 24 32 34 36 41 43 42 46 47 56 42 36 34 29 26 28
35 32 29 28 24 24 20 18 19 15 13 11 9 8 9 13 13 12 11 10 10 10 10 9 8 7 9 14 21 23 31 33 39 41 38 39 40 42 51 46 38 31 33 28 28
35 34 32 30 28 25 23 24 19 17 16 12 11 10 9 9 10 12 12 12 9 11 12 10 9 8 7 11 16 20 23 31 35 42 40 37 39 37 44 44 38 29 30 32 31
33 33 33 32 31 28 26 26 20 19 21 14 12 12 11 9 9 9 10 13 11 10 11 10 9 9 9 7 14 17 22 28 30 37 44 45 46 41 40 46 48 37 30 30 33
31 32 32 34 36 31 27 26 23 23 21 16 15 14 12 11 10 12 10 10 13 12 11 11 10 8 8 8 12 16 23 25 27 29 38 45 40 39 40 35 44 47 35 32 33
26 28 30 32 35 34 33 29 25 23 18 16 17 17 15 13 12 15 12 11 12 15 13 11 11 11 8 9 10 15 24 27 28 28 29 33 47 39 42 40 38 45 46 41 33
22 22 26 31 36 34 33 29 27 19 19 18 18 18 18 17 15 14 17 14 11 15 14 14 14 11 11 9 11 12 19 24 32 29 28 24 29 37 35 39 41 45 46 52 49
20 21 20 26 34 39 39 31 22 23 22 21 20 19 20 20 20 19 18 17 13 13 15 14 15 13 11 11 10 11 17 17 23 24 26 25 25 24 30 39 47 45 42 42 49
22 25 21 26 30 37 39 32 27 25 23 25 23 22 21 22 23 22 21 21 17 14 14 14 17 16 14 13 10 10 12 16 19 28 29 24 24 26 31 32 46 42 40 35 35
25 30 20 32 31 36 37 32 35 33 31 28 25 22 20 24 24 24 20 22 22 18 16 14 17 18 20 15 13 13 11 14 17 20 24 26 25 22 26 33 35 36 35 37 33
36 31 31 41 38 37 34 34 40 40 39 36 31 26 22 22 25 24 24 21 22 24 22 18 17 18 19 21 18 13 12 10 15 21 20 21 22 21 26 28 32 32 33 33 25
39 32 20 37 43 38 36 32 35 42 41 46 40 33 27 25 25 25 26 23 22 22 24 24 21 20 19 19 21 19 16 14 11 14 21 22 21 20 25 37 37 37 31 25 24
50 37 31 44 47 48 53 49 46 39 40 50 49 45 38 31 27 26 27 25 23 25 24 25 24 22 19 19 21 23 18 18 16 14 14 20 21 19 23 28 33 35 31 31 27
63 49 56 59 65 77 88 74 64 55 54 62 63 57 58 48 30 28 26 25 26 27 26 27 28 26 23 21 24 23 22 20 19 15 15 12 20 20 22 30 30 33 32 30 27
70 63 62 56 55 53 73 76 78 68 82 74 75 71 71 63 68 56 42 29 29 28 30 28 29 29 27 24 25 26 24 21 21 20 14 15 14 18 21 24 32 35 35 32 29
80 75 88 71 62 57 51 67 79 81 79 73 83 84 78 76 75 60 50 40 36 30 32 32 29 32 31 28 27 28 25 25 20 19 19 17 15 15 18 24 26 31 34 36 34

GFSSW_prec_cthk_033.txt.gz
RH
11 10 10 9 9 9 10 10 9 8 8 7 6 5 5 5 4 4 4 5 11 17 23 27 27 24 45 68 73 80 82 75 57 48 50 50 45 46 57 54 50 58 55 43 44
9 10 10 10 9 9 9 9 10 10 9 8 7 6 5 5 4 4 3 4 9 16 22 25 28 29 43 60 63 68 77 72 57 51 53 53 45 41 52 53 54 51 47 41 48
8 8 8 8 9 9 9 9 9 9 9 9 8 7 6 5 4 4 7 3 7 14 21 23 26 31 37 48 57 73 68 61 59 53 48 47 46 40 40 44 42 43 47 43 49
8 7 7 7 7 8 8 9 9 9 9 9 9 8 7 6 7 11 10 6 6 11 18 20 23 28 34 43 55 58 52 52 57 54 53 45 40 36 38 46 43 38 44 39 43
9 8 8 7 6 6 7 7 8 8 8 8 9 9 8 7 5 7 8 7 6 9 14 18 22 26 30 37 49 48 45 47 47 48 54 48 48 41 39 48 46 43 42 40 41
14 12 9 8 7 7 6 6 6 6 7 8 8 8 8 9 6 5 5 6 6 6 10 16 22 25 30 39 43 42 44 45 43 43 41 50 44 45 46 42 43 34 35 38 43
18 16 14 12 9 8 7 7 6 6 6 6 7 8 7 6 7 8 7 7 7 6 8 13 22 28 31 34 36 33 40 43 45 41 47 51 47 48 48 38 38 29 31 33 37
25 22 19 17 15 12 9 7 7 6 6 5 6 7 6 6 7 8 8 8 7 6 7 12 19 27 29 30 30 28 31 32 45 42 44 41 51 39 47 39 41 33 31 33 35
28 27 24 21 18 17 14 10 8 7 7 6 6 8 9 6 6 6 7 7 8 10 10 10 15 20 26 28 27 26 27 31 40 45 44 48 48 37 44 43 39 35 29 34 35
30 28 26 24 22 19 17 13 12 12 13 12 11 15 8 7 8 7 7 7 9 9 9 11 12 15 19 22 23 25 24 28 38 40 44 47 46 43 42 42 34 35 30 31 33
32 31 29 27 25 21 19 16 15 16 18 17 16 11 9 11 12 11 9 8 7 7 8 9 12 12 15 18 19 22 24 27 36 43 47 51 52 46 41 40 29 30 28 26 28
33 31 31 30 28 24 23 20 17 18 15 13 11 12 11 13 15 13 11 8 7 7 8 10 10 9 12 14 17 21 23 25 37 40 42 47 49 44 35 35 29 29 31 24 24
31 30 30 30 31 28 24 24 22 20 15 12 12 11 9 12 14 15 13 10 8 8 10 10 8 8 9 13 15 19 21 24 38 49 50 51 51 50 41 37 34 31 31 24 22
27 28 29 29 31 29 25 27 25 20 19 13 13 12 11 10 13 14 14 13 13 11 12 11 8 10 9 9 12 15 21 26 37 42 51 50 56 55 49 44 43 36 36 30 22
21 22 25 28 32 32 27 27 23 23 27 15 12 11 11 10 12 13 15 15 13 11 12 9 10 9 10 7 8 10 22 25 32 38 45 48 60 55 50 53 51 48 44 37 24
20 19 18 21 28 32 32 30 26 26 26 18 14 13 12 11 11 11 14 14 15 14 11 10 11 11 9 9 7 8 16 24 29 32 48 37 59 52 50 50 61 52 45 41 32
19 19 18 17 20 28 32 32 30 28 20 18 17 16 14 14 13 12 13 15 15 17 15 11 10 11 10 9 10 7 12 23 30 32 36 38 43 39 38 37 43 46 46 44 40
17 15 15 16 16 24 29 33 34 23 23 21 21 20 18 16 14 14 13 14 14 15 17 16 14 10 10 9 9 9 10 16 30 31 29 30 45 34 31 32 39 45 48 50 47
17 12 11 16 15 22 31 34 27 27 26 26 24 21 19 20 18 16 14 14 15 14 16 17 15 10 10 11 9 11 9 11 19 24 29 26 27 28 28 37 38 37 42 44 42
22 16 8 19 24 26 31 31 28 28 28 32 33 25 23 23 24 22 18 15 17 17 15 16 20 13 13 13 11 9 10 12 15 20 25 21 25 28 32 36 36 36 34 38 42
26 30 7 20 29 33 32 30 29 32 37 38 36 33 29 27 26 25 21 20 19 20 20 16 18 17 16 15 13 13 11 12 14 16 21 26 21 26 30 33 35 33 34 35 38
34 34 15 28 36 39 38 37 35 33 32 40 41 38 37 33 31 27 22 20 25 23 23 20 18 19 17 18 16 13 11 11 13 18 20 20 17 23 24 29 30 29 33 34 34
41 34 14 35 44 41 44 38 38 35 40 40 43 43 41 38 36 29 26 23 23 26 25 24 20 21 18 18 18 18 17 13 11 13 15 21 16 14 24 28 33 40 39 40 40
57 44 30 43 54 58 53 51 55 55 54 57 48 52 52 44 40 35 32 27 25 24 27 30 24 20 19 16 20 21 20 19 15 12 13 11 13 13 22 24 26 30 33 40 43
78 63 64 57 62 73 81 87 75 60 48 65 56 65 80 73 61 48 44 40 32 29 27 27 29 25 21 21 18 19 23 22 17 14 14 11 12 13 14 21 24 31 32 33 36
94 84 74 60 59 66 67 75 80 71 75 67 70 81 82 91 85 68 58 52 47 37 35 32 32 29 29 25 23 19 20 22 22 19 16 14 13 12 14 18 22 29 30 33 35
95 95 94 80 70 61 55 72 82 86 80 71 76 86 88 82 79 73 60 52 51 47 42 38 36 35 30 28 30 30 18 21 24 23 21 18 17 13 12 16 21 25 36 27 35

GFSSW_prec_cthk_036.txt.gz
RH
10 10 10 9 9 9 8 9 9 9 9 8 7 7 5 4 4 4 4 4 9 16 26 31 38 45 51 62 73 66 67 63 62 67 61 58 53 53 46 60 57 54 45 42 43
8 8 8 8 8 9 9 8 8 8 9 9 9 8 7 6 5 4 3 3 6 12 24 27 33 37 46 61 66 66 69 63 56 55 58 56 51 46 45 47 46 51 46 43 43
8 8 7 7 7 7 8 8 8 8 8 8 9 9 8 7 5 6 6 6 5 9 22 27 29 33 43 53 55 63 65 60 51 55 61 54 60 55 45 43 37 36 37 38 42
12 10 9 7 7 6 6 6 7 7 8 8 8 8 8 8 7 7 10 6 3 9 19 26 29 31 38 44 59 63 62 55 49 49 56 62 61 59 42 38 30 34 29 33 40
18 15 13 11 9 7 6 6 6 6 6 7 7 8 8 8 7 6 8 9 6 9 15 23 28 27 32 35 53 56 57 57 51 49 53 57 59 52 51 45 36 41 31 33 36
22 20 18 15 13 12 9 7 6 6 5 5 6 7 7 8 7 6 5 7 7 7 12 20 23 27 30 35 50 47 53 54 58 56 52 48 51 54 53 49 41 40 32 33 34
26 24 22 21 18 15 13 11 8 7 6 5 5 5 5 6 7 7 7 6 6 6 9 16 21 27 27 30 40 40 45 44 53 53 55 51 47 47 47 54 40 44 33 32 36
29 27 24 23 22 20 17 15 12 8 7 6 6 5 5 4 6 6 7 7 7 7 7 12 17 25 29 30 32 29 34 41 42 48 53 51 56 53 46 51 51 41 38 30 32
31 29 27 25 23 22 21 18 15 12 11 9 7 7 7 5 5 6 6 7 7 8 8 9 14 23 28 30 34 31 29 30 33 33 51 54 55 55 50 51 48 42 34 30 30
31 30 29 29 26 24 22 19 17 16 17 16 15 15 8 6 8 7 6 8 7 9 11 11 13 17 23 27 29 30 29 31 34 41 43 50 51 52 51 53 50 37 27 25 24
29 28 28 28 27 27 26 21 18 18 17 16 17 13 10 11 11 10 8 8 8 9 10 9 13 15 17 22 24 30 31 30 30 35 42 46 49 51 52 52 42 34 29 27 19
24 24 25 26 27 28 26 25 25 24 19 16 15 14 12 11 13 12 11 9 9 9 10 10 9 10 13 17 20 26 27 30 31 35 46 50 49 50 51 44 45 37 32 27 26
20 19 19 21 26 29 27 27 25 23 21 16 16 14 13 11 12 12 13 11 9 9 9 9 8 8 10 12 16 20 24 28 28 33 46 54 55 53 52 51 46 43 31 28 26
18 18 18 17 21 26 26 28 25 24 23 17 16 14 13 12 10 12 14 13 12 9 8 9 8 10 9 10 12 15 18 26 28 32 46 48 51 56 50 50 46 41 37 33 29
15 16 15 16 16 20 27 28 26 25 30 17 15 13 12 12 12 12 14 14 13 11 10 10 9 9 10 8 9 9 16 26 29 32 42 44 48 47 49 44 45 38 42 36 33
14 13 14 14 13 17 22 27 28 28 29 20 17 15 14 13 13 13 15 15 15 15 15 11 12 12 10 9 9 8 13 22 28 34 40 38 40 47 48 43 42 42 44 42 39
15 13 11 11 10 14 18 24 27 31 22 20 21 18 15 15 15 14 17 18 17 19 18 14 13 12 12 12 10 10 9 18 27 31 29 34 41 37 37 40 38 39 41 45 43
16 13 9 8 11 15 18 24 29 24 25 24 24 21 17 16 16 15 14 20 18 17 18 19 17 12 11 13 12 12 9 12 20 30 30 29 41 32 33 35 36 39 39 41 41
18 14 8 7 17 19 22 32 25 24 27 29 27 26 24 21 21 17 15 16 18 17 19 21 19 13 11 11 12 11 12 9 13 20 28 28 30 26 31 34 36 38 41 39 38
24 20 6 15 31 31 33 32 25 24 27 31 33 29 32 30 28 25 21 15 16 18 18 17 19 15 12 12 13 12 11 12 12 13 18 21 24 25 25 28 31 34 37 38 37
29 33 9 21 28 33 41 35 25 19 30 34 37 39 35 36 34 32 27 20 19 16 16 17 19 16 15 15 14 14 13 12 11 11 12 17 14 17 18 26 33 34 33 35 37
40 41 14 30 32 41 43 35 31 30 22 36 38 39 41 40 35 34 30 26 22 23 22 19 20 19 15 14 15 14 14 13 13 14 15 11 11 11 16 25 29 31 35 35 37
50 42 32 43 54 58 58 54 55 54 46 39 44 46 48 49 44 34 31 29 33 32 26 24 19 20 19 17 17 18 16 14 13 12 11 17 14 10 12 22 30 34 37 38 45
66 59 47 54 68 65 65 69 64 59 60 58 53 50 55 58 56 55 48 41 41 40 36 31 26 22 18 17 15 18 17 16 15 14 12 11 12 10 12 23 28 27 30 38 45
78 79 76 70 70 82 75 79 79 73 60 58 62 59 61 66 67 61 60 54 47 45 41 39 34 25 21 19 20 17 18 17 16 13 13 11 12 10 8 18 24 29 28 34 34
86 89 88 81 75 78 79 77 98 92 77 72 71 60 59 68 69 75 67 61 57 51 49 46 41 35 28 22 19 20 18 18 18 16 15 16 15 14 10 10 19 22 25 29 38
89 87 95 87 83 76 72 82 87 87 88 90 82 72 64 53 61 59 69 65 58 57 55 55 49 43 38 27 23 26 15 19 20 19 17 18 18 17 15 11 14 20 23 32 34

GFSSW_prec_cthk_042.txt.gz
RH
15 12 10 9 8 7 7 7 8 8 9 9 9 9 9 8 8 7 5 5 6 13 21 25 28 32 40 53 72 75 75 71 63 60 55 55 58 50 45 49 45 48 43 47 51
22 21 18 16 12 9 8 7 7 7 7 7 8 9 9 9 8 8 7 5 5 7 21 25 31 36 42 53 72 68 69 63 56 60 63 55 55 57 47 36 45 49 43 44 47
26 24 23 21 19 17 14 11 8 7 6 6 6 7 8 8 9 8 8 7 4 5 11 26 32 37 40 50 67 65 63 59 56 61 60 60 60 55 52 39 29 37 39 40 42
27 26 25 24 22 20 18 16 14 11 8 6 6 6 6 7 9 10 9 7 5 4 8 23 33 38 41 48 62 68 63 55 54 58 59 63 65 57 54 43 35 28 28 34 37
27 25 24 23 22 22 20 18 17 15 13 10 7 6 5 5 7 10 10 8 8 6 6 17 33 37 38 42 56 64 63 54 52 52 57 60 62 66 59 54 49 39 30 31 35
27 26 24 23 21 21 21 20 18 17 15 14 11 8 6 6 6 7 8 8 9 7 8 13 26 33 32 30 46 58 58 53 47 49 55 56 56 62 66 62 62 56 36 31 32
25 24 24 23 22 21 21 20 19 18 17 15 13 11 9 6 6 8 8 8 10 6 8 10 20 29 31 28 39 48 55 51 47 48 50 53 59 59 65 64 68 62 49 31 31
20 20 19 20 21 21 21 21 21 21 18 16 14 12 10 7 6 6 8 9 9 9 8 9 18 23 30 26 34 43 49 52 46 43 47 54 60 59 61 64 71 64 56 36 31
17 16 15 15 17 19 21 23 22 21 21 19 17 15 13 10 7 6 8 9 9 9 11 12 15 21 26 25 31 34 38 44 43 42 43 45 51 53 56 56 64 59 54 44 31
16 16 15 14 14 18 19 21 24 26 25 24 24 21 15 12 12 9 8 10 10 10 13 14 14 18 22 25 24 30 32 35 38 41 37 42 44 48 58 52 54 54 52 46 29
12 13 14 13 13 17 17 20 22 25 24 26 25 22 17 15 13 13 10 10 10 10 13 13 16 17 17 20 22 25 30 35 39 37 38 42 42 50 56 52 52 58 52 44 30
9 9 11 10 11 15 18 20 23 26 25 22 22 21 21 19 17 16 14 10 12 13 13 14 15 13 16 19 21 25 26 30 36 36 34 36 40 48 52 48 50 53 57 47 38
7 8 8 8 8 10 16 18 20 22 24 18 19 20 22 22 20 17 16 12 13 13 13 12 12 12 13 16 18 22 25 27 33 37 37 37 38 46 51 48 49 50 52 53 42
7 8 8 7 7 7 12 15 17 20 21 17 17 18 18 20 21 20 18 15 15 14 14 14 11 12 12 14 15 19 21 26 31 35 34 36 44 42 46 50 46 47 49 48 40
9 9 8 8 9 7 8 12 16 19 24 18 17 17 17 18 18 20 19 19 15 14 14 14 12 12 13 11 12 14 18 24 29 34 35 31 39 32 44 52 46 43 38 38 38
11 10 11 10 8 9 7 9 17 20 27 19 18 17 19 17 17 18 21 22 18 17 15 13 12 12 10 10 10 11 15 20 27 30 33 28 30 28 36 39 50 42 34 40 39
11 12 14 14 14 11 8 12 20 25 15 20 22 22 22 20 17 19 21 22 21 20 18 15 14 12 11 11 10 11 14 20 23 30 23 24 33 18 25 30 34 34 32 33 36
11 12 14 17 18 14 12 17 25 18 19 22 25 25 24 24 22 21 21 22 23 21 20 21 20 15 12 10 10 12 13 20 22 24 19 24 23 19 19 28 35 34 42 40 37
12 12 15 17 20 18 19 26 25 26 26 26 23 27 29 27 26 24 24 23 24 23 22 23 20 17 15 14 12 14 16 11 14 17 18 20 18 16 19 23 31 35 38 35 32
18 17 18 21 21 23 27 31 29 34 34 30 31 29 35 33 30 29 27 31 29 28 26 23 23 19 18 18 16 14 12 16 16 18 19 16 15 16 16 20 26 32 33 31 35
25 26 26 26 26 27 35 40 34 35 39 39 36 34 35 39 37 34 32 35 33 31 31 29 25 21 20 20 18 18 17 16 14 16 16 17 14 11 12 13 19 25 32 32 31
35 38 35 35 38 45 46 49 50 42 44 47 41 43 41 42 43 40 40 40 38 36 41 39 33 27 23 20 19 18 16 16 18 17 16 15 13 9 8 9 15 23 31 29 28
41 46 46 48 55 57 56 54 63 67 56 52 53 50 50 46 44 54 50 45 42 40 45 41 41 30 26 24 22 21 19 18 17 16 15 16 13 8 9 9 8 14 26 27 24
50 56 57 62 67 69 66 60 64 70 76 74 62 59 58 58 54 55 55 50 45 43 41 42 46 41 37 32 30 25 21 20 17 18 15 13 12 10 9 9 9 8 13 20 22
62 68 78 78 76 83 80 70 73 75 80 86 86 75 64 64 58 55 53 55 49 46 43 44 48 44 42 37 34 30 26 22 20 17 18 15 14 12 11 10 9 8 8 14 20
73 75 80 88 86 87 85 82 79 80 80 82 96 89 78 74 62 58 54 54 59 52 48 49 49 48 46 37 32 30 26 22 21 19 18 16 15 12 11 10 10 9 9 11 13
79 81 82 85 89 90 91 83 81 78 72 89 87 93 83 75 67 59 50 45 52 60 59 54 53 54 51 41 39 33 23 22 20 19 18 17 15 14 12 11 11 9 9 11 13

GFSSW_prec_cthk_048.txt.gz
RH
26 25 23 22 21 20 18 16 13 10 8 7 7 7 8 8 8 7 7 8 6 6 10 20 28 37 40 50 61 72 69 63 57 60 57 48 46 43 48 48 51 55 61 63 66
25 25 24 23 21 21 20 19 18 15 12 9 7 6 6 7 8 7 8 8 6 6 8 19 29 36 42 47 61 67 68 59 49 45 53 46 47 39 41 46 47 51 54 60 63
22 23 23 23 22 21 20 19 19 18 16 14 11 7 6 6 7 7 7 7 6 6 10 18 28 35 37 45 58 62 61 50 50 50 46 50 50 44 42 41 44 46 45 52 57
18 17 16 17 18 19 18 19 19 18 18 17 15 12 8 6 6 8 8 8 7 7 13 19 29 33 38 43 54 61 58 57 56 53 50 53 56 52 45 39 36 41 44 46 51
16 16 15 15 14 14 15 15 17 18 18 18 17 16 14 11 6 7 8 9 8 12 12 19 25 32 36 44 55 59 60 56 56 54 49 50 54 61 56 45 37 31 37 43 46
16 15 15 14 14 13 13 14 15 17 18 18 18 18 17 14 9 6 8 8 12 13 14 18 21 32 36 41 55 55 60 61 57 52 50 50 52 55 53 51 47 37 31 38 41
9 11 13 13 13 13 13 13 14 16 18 20 20 19 20 16 10 7 9 12 13 15 14 17 19 31 33 38 45 52 57 58 51 50 47 46 51 54 56 53 53 49 38 35 40
7 7 7 10 11 12 13 14 15 16 18 21 23 22 21 17 14 8 9 14 17 16 18 17 19 30 31 29 28 37 44 47 45 45 44 51 57 51 52 62 52 50 48 38 36
6 6 6 6 7 9 10 13 15 16 18 20 24 27 22 18 16 13 10 14 18 18 18 22 22 23 36 31 27 27 41 40 46 45 48 55 57 56 55 53 48 50 51 45 39
7 6 6 5 5 6 8 10 13 15 19 23 26 28 24 20 18 15 13 15 19 23 20 22 24 20 29 32 27 27 33 42 46 44 47 54 55 54 54 49 52 53 54 48 42
8 7 6 6 5 6 5 9 14 18 17 21 25 25 26 24 22 17 17 17 23 21 15 17 18 14 14 21 23 28 28 37 42 44 44 47 50 49 48 51 42 48 50 48 45
10 8 7 7 6 6 8 10 13 16 15 12 14 17 25 26 25 19 18 18 20 18 15 15 14 13 14 14 20 23 23 31 40 39 37 41 44 45 43 50 41 48 50 50 46
9 8 8 8 7 9 11 13 14 15 15 10 12 14 15 22 24 23 20 19 19 19 16 13 12 12 13 15 18 22 22 23 36 39 34 35 38 42 41 42 45 44 46 52 47
9 7 6 6 10 11 16 13 14 16 16 9 10 13 14 17 22 24 21 20 20 20 18 16 14 11 12 12 12 16 22 23 30 36 35 34 36 40 40 44 45 42 43 42 44
9 8 7 7 9 13 13 13 13 20 12 13 13 13 14 15 18 21 24 22 18 18 19 17 15 14 12 10 10 11 17 23 25 30 34 31 30 29 37 39 42 44 37 39 38
9 9 8 11 13 12 11 10 14 20 15 16 14 15 16 17 18 21 23 21 20 20 20 17 17 15 13 12 11 11 12 18 24 24 26 23 26 23 28 33 36 41 39 33 36
12 11 11 11 13 11 11 14 16 16 16 25 23 21 20 18 20 20 23 23 24 21 19 20 17 18 15 15 13 11 13 15 20 22 20 20 23 20 25 26 30 32 38 37 32
17 16 15 15 15 11 13 17 17 20 30 31 27 23 22 23 21 21 24 25 25 23 23 23 20 16 16 15 14 12 12 11 18 16 17 19 18 17 20 22 24 30 34 37 36
20 22 22 20 16 15 19 17 16 45 49 35 26 28 27 27 26 23 23 25 26 26 24 23 23 19 17 16 14 14 14 10 11 12 14 13 14 14 15 18 21 24 30 36 34
25 25 26 23 21 24 25 30 36 39 40 36 35 37 42 38 33 27 24 29 28 29 31 27 26 22 20 18 15 15 13 11 10 14 15 11 11 13 12 14 18 22 26 33 33
35 31 28 26 30 32 33 35 33 39 41 40 46 49 46 43 41 35 36 34 33 34 34 31 27 26 22 18 16 16 16 14 12 11 13 14 10 10 10 12 14 19 25 31 27
42 37 35 33 41 39 42 43 42 47 52 48 42 46 52 54 49 47 47 44 38 38 36 34 32 31 23 22 19 17 16 14 14 16 12 10 10 9 8 8 12 15 22 22 24
52 50 46 43 45 47 53 53 52 54 58 58 77 61 60 56 61 59 57 49 41 40 44 41 32 34 32 26 22 19 17 16 16 13 15 14 11 11 9 10 11 16 21 22 24
64 61 58 57 58 57 57 61 63 61 68 69 86 81 64 56 57 63 61 53 47 43 40 42 37 33 29 28 25 24 19 17 16 16 15 15 14 11 10 10 9 10 18 22 27
76 70 78 68 69 66 62 63 69 69 70 67 87 98 90 63 62 62 64 60 52 49 43 41 41 41 38 37 32 27 22 19 18 18 17 16 16 15 13 11 12 12 15 19 26
91 86 90 82 77 73 64 69 70 75 73 74 84 95 96 91 79 84 71 65 59 54 49 45 45 43 41 36 33 31 28 25 22 19 19 18 18 17 17 14 11 12 11 14 18
97 96 97 91 84 82 72 67 71 75 74 72 77 82 82 87 77 65 60 62 57 55 51 49 44 43 40 36 35 34 28 26 25 23 22 21 21 20 18 17 15 11 11 11 13